Location: Unspecified
(0.0000°N, 0.0000°E)
Time: 07:23:36
(UTC+00:00)

Vanguard 1 Rocket - Pass Details

Date: 04 December 2022
Orbit: 651 x 4224 km, 34.3° (Epoch: 04 February)

Event Time Altitude Azimuth Distance (km) Brightness Sun altitude
Rises 20:09:23 0° 226° (SW) 8,459 13.3 -31.8°
Reaches altitude 10° 20:17:37 10° 215° (SW) 7,229 12.6 -33.7°
Maximum altitude 20:35:37 27° 164° (SSE) 4,773 11.0 -37.6°
Enters shadow 20:43:31 19° 128° (SE) 4,527 10.7 -39.4°
